Regional Weather Roundup
Issued by NWS Little Rock, AR

Home | Current Version | Previous Version | Text Only | Print | Product List | Glossary Off
Versions: 1 2 3 4 5 6 7 8 9 10 11 12 13 14 15 16 17 18 19 20 21 22 23 24 25 26 27 28 29 30 31 32 33 34 35 36 37 38 39 40 41 42 43 44 45 46 47 48 49 50

000
ASUS44 KLZK 010205
RWRLZK

WEATHER ROUNDUP FOR ARKANSAS
NATIONAL WEATHER SERVICE LITTLE ROCK AR
900 PM CDT TUE MAR 31 2015

NOTE: "FAIR" INDICATES FEW OR NO CLOUDS BELOW 12,000 FEET WITH NO
SIGNIFICANT WEATHER AND/OR OBSTRUCTIONS TO VISIBILITY.

ARZ001-003-010-029-010300-
NORTHWEST ARKANSAS

CITY           SKY/WX    TMP DP  RH WIND       PRES   REMARKS
FAYETTEVILLE   CLEAR     60  51  72 S5        29.92R
FORT SMITH     CLEAR     74  59  59 SW7       29.88R
HARRISON       CLEAR     68  56  65 CALM      29.93R
BENTONVILLE    CLEAR     68  48  49 NE5       29.93R
ROGERS         CLEAR     68  52  56 NE5       29.94R
SILOAM SPGS    CLEAR     66  48  52 N6        29.93S
HIGHFILL       CLEAR     64  50  60 NW3       29.92R
SPRINGDALE     CLEAR     75  52  43 W8        29.94R
$$

ARZ004-005-016-010300-
NORTH CENTRAL ARKANSAS

CITY           SKY/WX    TMP DP  RH WIND       PRES   REMARKS
BATESVILLE     PTCLDY    70  59  68 NE5       29.90R
FLIPPIN        PTCLDY    72  54  53 CALM      29.91R
MTN HOME       CLOUDY    72  54  53 CALM      29.91R
$$

ARZ040-041-010300-
WEST CENTRAL ARKANSAS

CITY           SKY/WX    TMP DP  RH WIND       PRES   REMARKS
MENA           PTCLDY    70  63  78 SW5       29.96R
MOUNT IDA      PTCLDY    68  60  75 CALM      29.93R
$$

ARZ009-017-025-026-028-010300-
NORTHEAST ARKANSAS

CITY           SKY/WX    TMP DP  RH WIND       PRES   REMARKS
CORNING        LGT RAIN  61  59  94 E6        29.95R
JONESBORO      MOCLDY    64  57  78 NE9       29.92R
NEWPORT        MOCLDY    69  64  84 SE12      29.91R
BLYTHEVILLE    CLOUDY    64  55  72 S9        29.96R
$$

ARZ022-023-033-042-044-010300-
CENTRAL ARKANSAS

CITY           SKY/WX    TMP DP  RH WIND       PRES   REMARKS
LITTLE ROCK    PTCLDY    71  60  68 SW13      29.94R
N LITTLE ROCK  PTCLDY    70  64  81 SW13G18   29.94R
JACKSONVILLE   PTCLDY    72  62  72 S12       29.93R
SEARCY         CLOUDY    73  64  73 SW14G24   29.90R
HOT SPRINGS    MOCLDY    68  61  78 S3        29.95R
RUSSELLVILLE   CLEAR     73  61  65 S6        29.89R
CLINTON        CLOUDY    63  63 100 CALM      29.93R FOG
$$

ARZ036-010300-
EAST ARKANSAS

CITY           SKY/WX    TMP DP  RH WIND       PRES   REMARKS
WEST MEMPHIS   MOCLDY    70  62  76 S5        29.90S
$$

ARZ050-053-066-070-073-010300-
SOUTHWEST ARKANSAS

CITY           SKY/WX    TMP DP  RH WIND       PRES   REMARKS
ARKADELPHIA    CLOUDY    69  66  90 S8        29.95S
CAMDEN         CLEAR     66  61  82 CALM      29.97R
TEXARKANA      CLEAR     66  63  90 SE3       29.95S
EL DORADO      CLEAR     65  61  87 CALM      29.98R
DE QUEEN       MOCLDY    68  64  87 SE6       29.92S
$$

ARZ056-057-069-010300-
SOUTHEAST ARKANSAS

CITY           SKY/WX    TMP DP  RH WIND       PRES   REMARKS
PINE BLUFF     PTCLDY    70  62  76 SW8       29.95R
STUTTGART      PTCLDY    66  63  88 S9        29.95R
MONTICELLO     CLEAR     72  62  71 W6        29.95R

$$





USA.gov is the U.S. government's official web portal to all federal, state and local government web resources and services.